Temp
9 9 11 11 12 11 12 12 12 11 10 13 12 13 14 14 14 14 14 14 13 14 15 14 14 14 14 14 14 14 14 14 14 14 14 14 14 14 14 13 13 13 13 13
8 9 10 10 11 11 11 12 12 10 10 11 11 12 13 13 14 14 14 14 13 13 13 13 14 14 14 14 14 14 14 14 14 14 13 13 13 14 14 14 13 13 13 12
9 10 10 10 10 10 10 11 11 12 10 10 10 12 12 13 13 12 12 13 13 12 12 12 13 14 14 14 14 14 14 14 14 14 14 14 14 13 13 13 13 13 13 13
8 10 9 9 9 10 10 11 11 10 11 12 11 12 11 12 10 9 9 11 11 11 11 11 12 12 12 13 13 13 13 13 12 12 12 12 12 13 13 13 13 12 12 12
8 8 9 9 10 11 10 10 10 10 10 10 10 11 12 10 10 8 7 7 8 9 9 9 10 11 11 11 11 11 11 11 12 11 11 12 12 13 12 12 11 11 11 11
7 8 9 10 10 11 9 9 8 8 9 10 10 12 11 9 10 7 6 6 7 7 8 8 8 9 9 10 10 10 10 10 10 11 10 12 11 11 11 11 11 11 10 10
7 7 7 7 9 9 10 10 9 9 9 10 7 11 12 11 9 8 6 6 7 7 8 7 8 8 8 9 9 9 10 9 9 11 11 11 11 10 10 10 10 10 10 10
7 7 7 7 8 9 9 10 9 10 8 8 7 10 11 10 9 7 7 7 7 7 8 7 7 7 7 8 8 8 8 8 9 9 9 9 10 10 10 10 10 9 8 9
7 7 6 6 6 8 8 9 7 7 3 6 8 9 9 8 8 8 6 6 6 7 7 6 6 7 6 6 6 6 6 7 7 7 7 8 9 9 8 8 7 7 7 7
5 6 5 6 6 6 7 7 7 6 7 7 7 7 9 6 8 7 6 4 4 5 5 6 6 6 6 7 7 6 6 6 6 7 7 8 8 7 6 6 6 6 6 6
5 6 5 5 6 6 6 6 6 6 6 7 7 8 7 7 8 7 5 4 4 5 6 6 6 6 6 6 5 5 5 6 6 6 5 5 5 5 5 5 5 5 5 5
5 5 6 5 3 4 6 6 7 8 6 5 7 8 4 5 7 7 4 3 4 5 5 5 6 5 4 4 4 5 5 5 5 5 5 5 4 4 4 4 4 4 4 4
4 4 4 5 5 3 4 5 5 7 6 6 7 8 4 5 5 4 3 3 3 3 3 3 3 4 4 4 5 5 5 5 5 4 4 4 4 4 4 4 3 3 3 3
5 2 4 6 6 5 6 5 5 6 6 6 7 6 4 3 4 3 2 2 3 3 4 4 3 3 4 4 4 4 4 4 4 3 3 3 3 3 3 3 2 2 1 1
4 1 2 3 3 5 5 7 6 7 7 7 8 6 5 4 3 3 3 3 3 3 3 3 3 3 3 3 3 2 2 3 3 3 3 3 2 2 2 2 1 1 0 -0
3 2 1 1 4 4 5 3 5 5 4 6 7 7 4 4 3 2 3 3 3 3 3 2 2 2 2 2 3 3 3 3 2 2 2 2 2 1 1 0 -0 -0 -1 -1
3 1 -0 1 3 3 2 3 4 4 4 7 6 7 3 2 3 3 3 3 4 3 3 3 3 3 3 3 3 3 2 1 1 1 1 1 0 -0 -0 -1 -1 -2 -2 -2
1 1 1 -1 1 2 5 4 4 5 5 5 6 3 4 4 4 3 4 5 4 3 3 3 2 2 2 3 2 0 -0 -0 0 0 -0 -1 -1 -1 -2 -2 -2 -3 -3 -3
-0 1 -2 1 -1 2 4 3 3 4 4 4 5 2 3 3 3 3 4 4 4 3 2 2 2 2 2 1 -0 -0 -0 -0 -0 -1 -1 -1 -1 -2 -2 -3 -3 -4 -4 -4
-0 -0 1 -5 1 1 5 4 4 5 3 3 5 2 1 3 3 1 2 3 2 2 2 2 2 1 0 -0 -0 -0 -1 -1 -1 -1 -1 -2 -2 -3 -4 -5 -5 -5 -4 -5
-3 -1 1 -7 -4 -1 2 3 4 3 5 3 5 3 2 2 4 4 2 2 3 2 2 1 1 0 -0 -0 -0 -0 -0 -1 -1 -2 -2 -3 -4 -5 -5 -6 -5 -5 -6 -5
-1 -2 -4 -6 -2 3 2 3 3 3 3 2 3 2 2 5 4 3 2 3 2 2 1 0 -0 -0 -0 -0 -0 -1 -2 -2 -2 -3 -4 -5 -5 -6 -6 -6 -6 -6 -6 -6
-4 -1 -2 -1 0 2 2 3 3 3 3 2 3 3 4 4 3 3 2 2 1 1 0 -0 -0 -1 -1 -1 -1 -2 -2 -3 -4 -4 -5 -5 -6 -6 -6 -6 -6 -7 -7 -7
-3 -2 -4 -1 0 -0 3 3 4 3 4 4 4 4 5 5 3 2 2 2 1 0 -0 -1 -1 -1 -1 -1 -2 -2 -3 -4 -5 -5 -5 -6 -6 -7 -7 -7 -7 -7 -8 -8
-3 -4 -6 -5 -1 -0 2 3 3 3 4 4 3 4 4 5 4 4 3 1 -0 -1 -1 -1 -1 -1 -1 -2 -2 -3 -4 -5 -5 -6 -7 -7 -8 -8 -7 -8 -8 -8 -9 -10
-4 -4 -2 -2 3 3 4 5 4 4 4 4 4 4 4 4 4 2 1 0 0 -0 -1 -1 -1 -1 -2 -3 -4 -5 -5 -5 -6 -7 -8 -8 -8 -8 -8 -8 -8 -9 -9 -10
Height
1526 1529 1526 1528 1530 1534 1535 1539 1542 1546 1546 1546 1547 1544 1541 1544 1545 1545 1546 1548 1552 1554 1558 1560 1563 1566 1569 1572 1573 1575 1577 1579 1581 1583 1583 1585 1586 1587 1587 1587 1587 1586 1586 1584
1527 1527 1527 1528 1532 1535 1537 1539 1542 1548 1547 1548 1547 1544 1542 1542 1543 1542 1544 1546 1551 1554 1555 1556 1560 1562 1566 1568 1571 1572 1573 1575 1577 1579 1580 1581 1582 1582 1584 1583 1583 1582 1582 1581
1528 1527 1524 1530 1534 1536 1537 1540 1542 1543 1547 1548 1549 1546 1543 1541 1541 1542 1541 1542 1547 1551 1553 1555 1556 1559 1563 1565 1568 1569 1570 1572 1573 1575 1576 1576 1578 1579 1580 1580 1580 1579 1578 1576
1524 1523 1525 1528 1533 1534 1538 1536 1538 1545 1545 1546 1543 1546 1541 1537 1540 1543 1543 1542 1545 1548 1552 1553 1554 1557 1560 1562 1564 1566 1567 1569 1570 1571 1572 1573 1573 1575 1576 1577 1577 1575 1574 1573
1522 1522 1526 1527 1526 1529 1534 1535 1537 1541 1544 1544 1546 1550 1533 1536 1542 1545 1545 1543 1544 1546 1549 1553 1553 1556 1557 1560 1562 1564 1566 1568 1567 1569 1572 1573 1572 1573 1574 1574 1575 1574 1572 1570
1522 1521 1522 1521 1524 1527 1533 1538 1542 1547 1547 1549 1540 1540 1535 1538 1534 1543 1546 1546 1545 1546 1549 1553 1555 1557 1558 1562 1563 1565 1566 1568 1571 1562 1576 1571 1571 1572 1573 1573 1572 1571 1570 1568
1522 1524 1523 1523 1526 1527 1532 1535 1545 1549 1548 1539 1547 1540 1528 1529 1532 1535 1542 1545 1547 1550 1549 1554 1557 1561 1562 1564 1567 1569 1565 1573 1575 1565 1578 1572 1572 1571 1571 1570 1568 1568 1566 1564
1517 1526 1524 1524 1522 1524 1529 1529 1535 1536 1547 1546 1550 1534 1528 1530 1530 1536 1539 1542 1546 1549 1552 1556 1558 1561 1570 1564 1567 1570 1571 1568 1573 1571 1576 1575 1571 1571 1571 1572 1568 1567 1566 1561
1515 1518 1523 1523 1522 1522 1527 1530 1537 1544 1566 1553 1541 1534 1531 1534 1535 1540 1543 1543 1546 1548 1553 1556 1559 1559 1566 1564 1569 1569 1568 1570 1570 1577 1573 1576 1572 1571 1571 1570 1568 1565 1563 1561
1520 1523 1525 1522 1520 1523 1521 1529 1537 1543 1547 1549 1541 1541 1529 1536 1536 1540 1544 1545 1546 1549 1554 1555 1558 1561 1563 1565 1568 1570 1569 1572 1574 1576 1575 1574 1571 1570 1570 1569 1565 1563 1561 1559
1520 1520 1527 1523 1522 1522 1527 1527 1533 1537 1539 1539 1544 1530 1526 1528 1528 1534 1539 1543 1545 1548 1551 1554 1556 1560 1565 1570 1570 1572 1572 1571 1572 1573 1573 1573 1569 1570 1568 1566 1564 1561 1558 1555
1518 1521 1520 1522 1527 1527 1524 1524 1525 1523 1541 1543 1533 1526 1526 1525 1529 1535 1539 1542 1545 1548 1552 1557 1559 1562 1563 1566 1569 1570 1571 1571 1571 1571 1571 1569 1568 1569 1566 1564 1562 1559 1557 1553
1516 1521 1527 1525 1528 1530 1526 1524 1529 1523 1529 1534 1534 1526 1528 1528 1529 1536 1538 1544 1547 1550 1554 1559 1562 1563 1565 1566 1569 1570 1570 1569 1569 1569 1568 1567 1567 1565 1562 1560 1560 1557 1553 1548
1513 1522 1521 1516 1516 1520 1521 1525 1527 1527 1531 1529 1526 1528 1532 1530 1530 1537 1542 1543 1544 1549 1555 1559 1563 1565 1566 1567 1566 1567 1568 1567 1567 1568 1567 1566 1564 1561 1559 1556 1553 1551 1548 1543
1513 1525 1523 1524 1523 1520 1519 1518 1523 1521 1521 1523 1516 1523 1522 1527 1530 1534 1537 1541 1545 1548 1554 1559 1562 1564 1565 1567 1565 1565 1566 1566 1565 1564 1562 1561 1559 1556 1554 1551 1548 1546 1543 1540
1513 1522 1523 1528 1518 1517 1518 1524 1520 1523 1526 1521 1519 1517 1518 1525 1533 1534 1535 1539 1543 1548 1551 1556 1559 1561 1563 1563 1562 1562 1563 1563 1563 1562 1560 1556 1554 1552 1550 1547 1545 1541 1539 1533
1512 1521 1529 1534 1523 1523 1532 1518 1517 1519 1519 1515 1518 1512 1518 1526 1529 1529 1532 1538 1543 1547 1549 1552 1555 1559 1559 1561 1559 1560 1561 1561 1559 1559 1558 1555 1550 1549 1547 1543 1541 1536 1529 1527
1513 1517 1522 1539 1530 1536 1508 1508 1508 1508 1509 1509 1509 1511 1510 1513 1523 1529 1533 1535 1541 1545 1546 1549 1553 1556 1556 1558 1558 1559 1558 1558 1557 1555 1553 1549 1548 1545 1543 1539 1534 1530 1523 1520
1512 1515 1533 1530 1539 1520 1506 1507 1509 1508 1504 1502 1505 1510 1513 1517 1524 1532 1534 1537 1539 1543 1546 1548 1551 1552 1553 1555 1556 1556 1556 1556 1553 1552 1548 1542 1541 1539 1538 1534 1530 1523 1520 1517
1515 1515 1518 1548 1531 1534 1501 1501 1502 1502 1510 1493 1500 1505 1511 1518 1526 1526 1529 1534 1539 1543 1545 1547 1548 1548 1550 1553 1553 1553 1553 1552 1549 1546 1541 1536 1536 1536 1536 1531 1525 1520 1516 1514
1525 1524 1519 1551 1541 1519 1502 1502 1502 1518 1503 1493 1495 1500 1507 1512 1513 1517 1527 1534 1538 1540 1542 1543 1544 1547 1550 1551 1551 1550 1548 1546 1544 1539 1536 1535 1534 1535 1532 1526 1520 1516 1513 1512
1519 1528 1537 1544 1533 1514 1498 1501 1503 1498 1494 1494 1496 1499 1505 1510 1513 1517 1524 1530 1535 1537 1539 1541 1543 1544 1546 1546 1547 1546 1544 1541 1538 1536 1535 1535 1533 1530 1526 1522 1518 1514 1511 1508
1528 1512 1516 1514 1508 1497 1497 1496 1497 1495 1494 1494 1496 1502 1507 1510 1515 1520 1524 1529 1533 1535 1537 1538 1540 1542 1542 1543 1542 1541 1539 1538 1536 1534 1533 1531 1529 1525 1522 1518 1514 1511 1507 1503
1509 1507 1512 1508 1496 1494 1492 1492 1493 1493 1493 1495 1498 1501 1507 1511 1516 1520 1524 1527 1529 1532 1533 1536 1538 1539 1539 1539 1538 1537 1536 1533 1531 1530 1529 1527 1524 1521 1518 1514 1511 1507 1503 1498
1502 1503 1506 1504 1492 1491 1487 1488 1491 1493 1494 1497 1501 1505 1508 1511 1515 1518 1521 1524 1527 1529 1532 1534 1535 1535 1535 1534 1534 1532 1529 1529 1528 1526 1524 1522 1520 1517 1515 1512 1509 1505 1500 1494
1487 1486 1493 1492 1478 1480 1481 1484 1488 1491 1495 1498 1501 1505 1509 1512 1515 1517 1520 1523 1526 1528 1530 1530 1531 1531 1531 1530 1528 1527 1526 1525 1524 1522 1520 1517 1515 1512 1510 1508 1505 1500 1495 1492
Wind_Speed
4 2 7 4 4 3 4 4 5 1 1 3 9 6 6 3 4 9 14 17 17 19 15 15 17 19 17 17 17 15 14 14 14 15 14 14 14 12 13 14 16 18 19 19
3 7 4 3 3 4 3 2 2 0 0 3 2 6 4 4 4 5 10 14 14 14 15 16 16 18 19 18 17 17 16 16 17 18 18 19 20 14 13 16 19 19 22 24
4 1 9 6 3 4 5 3 5 1 2 2 4 5 4 3 3 6 4 5 8 10 12 12 13 15 17 17 16 16 17 17 18 19 20 20 17 13 16 15 15 18 21 21
5 5 7 5 6 5 2 7 5 7 5 5 4 4 5 5 4 6 8 11 11 11 9 10 10 11 9 9 9 11 11 11 10 11 13 12 8 7 10 13 14 14 13 14
5 7 7 5 4 6 2 3 5 4 3 2 3 3 2 8 5 4 8 16 16 16 16 15 15 14 13 11 9 7 6 5 5 3 2 2 3 3 4 6 8 8 9 11
3 1 0 4 3 6 7 5 6 5 3 3 7 6 4 5 7 6 10 20 23 24 24 23 23 21 21 18 15 12 11 11 10 13 6 7 6 5 3 4 6 10 12 13
3 2 3 1 4 3 9 5 1 2 3 3 4 8 1 2 7 16 20 23 29 29 32 32 31 28 27 24 21 19 18 15 13 13 6 9 9 10 11 11 13 13 14 15
5 4 6 3 2 3 9 7 3 5 4 2 4 6 2 1 14 23 31 35 35 36 33 25 23 22 19 20 17 16 15 17 17 16 14 13 15 16 16 15 15 16 16 16
4 2 1 0 1 1 5 5 2 6 2 2 3 2 3 3 14 19 24 29 32 29 23 20 15 13 10 12 11 11 11 12 12 14 12 10 8 8 10 11 11 13 14 16
2 2 2 1 2 8 2 10 4 1 5 4 3 3 4 6 15 13 16 19 24 22 18 15 11 7 0 4 6 7 6 3 4 6 8 10 9 8 8 8 10 12 14 16
3 1 0 1 2 4 2 3 4 4 2 4 3 4 0 4 18 17 17 21 23 21 17 16 15 11 9 7 6 4 4 5 6 5 2 2 4 6 8 11 12 15 17 19
3 3 3 2 3 2 2 5 3 4 4 3 1 3 6 4 16 21 20 24 24 23 21 17 18 17 14 12 9 8 6 5 3 2 3 5 7 8 10 13 15 17 20 22
5 1 3 1 2 1 3 3 3 3 2 4 4 3 5 12 18 20 27 27 26 26 23 21 18 16 15 12 9 6 4 2 1 3 5 7 9 11 15 18 21 23 24 25
4 2 3 3 2 3 3 6 9 4 2 3 4 4 3 6 15 20 23 29 32 29 26 22 18 15 11 8 6 4 2 2 3 5 7 10 13 17 20 22 23 25 26 27
3 3 3 2 3 1 2 6 12 9 2 5 3 7 9 9 14 24 30 33 31 28 25 20 16 12 8 6 5 4 4 4 5 8 10 14 18 20 21 23 23 24 26 26
0 3 2 4 3 3 2 6 5 6 3 5 2 2 5 14 17 24 31 33 31 27 23 18 13 9 6 4 3 3 4 5 8 11 14 16 19 21 21 22 24 24 25 26
3 5 2 3 3 3 5 11 13 7 6 6 5 6 15 9 20 27 30 32 30 25 21 15 10 6 2 1 2 2 2 6 10 13 16 18 19 20 22 23 24 24 25 27
5 4 2 2 2 1 4 1 6 11 7 10 3 6 21 24 24 28 33 32 27 23 18 13 8 4 1 1 1 1 4 7 11 14 16 18 20 21 22 22 24 24 26 28
4 3 2 4 3 4 5 4 7 8 10 12 8 7 13 26 23 17 24 24 24 20 15 10 6 4 4 2 1 3 6 10 13 14 17 19 22 22 22 22 23 25 26 27
5 5 3 2 4 6 5 2 1 0 5 15 17 16 23 25 9 5 26 24 21 16 11 8 6 4 3 2 2 6 9 12 14 16 18 20 21 21 20 20 22 24 25 26
3 2 3 2 3 7 4 3 3 5 4 2 23 27 30 9 7 24 27 23 17 14 10 8 6 5 4 3 5 8 12 13 15 16 18 18 17 16 18 20 22 23 24 25
4 5 3 3 1 6 4 3 6 2 5 5 16 23 26 17 22 30 28 24 19 14 11 9 7 5 4 5 8 11 12 14 15 15 15 15 15 17 18 19 20 21 23 26
2 4 3 6 5 2 7 5 6 8 4 11 20 23 24 24 27 26 25 21 16 12 10 9 7 6 5 7 11 12 13 13 14 14 14 14 15 16 17 18 18 20 25 29
4 5 2 2 5 14 9 10 8 6 7 12 19 28 23 22 22 21 18 16 14 12 10 9 6 6 8 11 13 14 13 14 15 14 13 13 14 15 15 16 18 23 27 31
4 9 5 5 9 7 15 16 8 10 12 16 23 24 19 16 16 13 14 14 13 12 10 7 7 9 11 13 14 13 14 14 14 13 14 14 14 14 14 15 19 23 27 31
13 8 6 6 12 8 3 20 15 20 22 22 25 22 16 12 11 12 13 13 12 10 9 9 10 11 13 14 14 14 14 13 13 13 13 14 14 14 13 16 18 23 27 29
Wind_Direction
184 198 207 160 211 88 129 152 169 108 45 186 201 203 227 241 235 228 245 238 226 220 220 222 221 224 227 233 231 235 240 245 251 256 259 264 267 268 274 292 302 301 300 303
127 230 161 148 202 144 129 139 150 22 151 163 226 248 249 245 257 241 246 251 243 225 217 218 221 223 228 235 237 240 245 247 248 255 258 261 261 271 284 285 292 298 303 300
223 334 159 151 169 190 167 186 195 268 148 55 142 266 205 179 121 98 127 211 223 227 220 206 203 213 225 233 241 244 247 249 249 252 254 258 266 274 280 289 292 293 295 299
237 207 169 168 181 158 188 194 159 139 166 219 172 264 246 170 111 66 92 119 130 153 158 163 165 174 197 212 226 242 249 254 256 258 263 263 256 271 292 296 303 312 317 320
204 176 186 186 180 156 128 97 135 169 150 306 196 225 248 145 165 139 100 117 126 133 135 131 129 131 130 129 134 130 139 154 153 93 344 312 303 311 320 329 333 335 338 338
178 10 255 181 124 146 136 85 62 38 95 240 185 207 200 186 181 139 119 115 122 123 122 117 112 115 112 109 103 97 95 96 102 96 100 95 89 69 20 353 343 343 345 344
154 83 329 272 112 68 169 149 128 165 197 242 341 192 279 168 170 156 141 124 122 123 115 110 104 103 102 100 98 96 88 85 66 72 30 33 20 14 2 355 355 345 338 340
153 180 179 173 143 157 179 186 180 189 191 172 341 226 233 296 141 145 139 133 127 122 117 108 102 95 91 85 74 67 60 49 34 30 21 17 6 350 338 335 338 339 340 340
153 167 44 354 304 169 161 189 31 110 69 89 211 284 297 114 130 141 140 136 134 132 130 122 115 96 79 62 58 39 39 25 11 338 342 333 330 329 339 336 333 330 333 334
138 136 342 46 165 29 220 145 88 73 154 216 218 264 221 166 162 158 153 140 141 137 135 133 121 94 342 312 328 25 36 293 292 295 291 297 303 306 315 330 341 344 342 339
121 122 197 276 209 167 110 141 76 122 150 170 170 246 92 215 181 170 153 143 144 139 133 125 120 106 110 141 165 169 188 211 222 218 218 353 7 356 354 350 349 348 345 338
206 129 138 97 180 296 306 155 192 155 208 244 211 268 334 227 169 163 143 147 149 143 141 137 145 148 147 147 150 167 157 148 135 79 9 2 4 353 350 347 345 340 335 334
178 177 89 78 105 327 228 156 113 36 89 195 147 251 15 98 118 141 140 147 150 146 143 147 149 150 152 151 152 151 145 123 59 22 9 357 348 347 348 345 341 339 338 339
144 110 155 174 156 118 178 175 157 115 172 191 224 167 183 157 136 138 143 148 149 149 150 153 155 154 149 146 141 138 117 67 30 3 357 351 348 348 345 344 344 344 344 345
127 149 127 132 165 144 136 150 180 184 243 191 215 192 194 179 156 154 151 151 151 154 158 160 156 151 143 137 122 100 67 35 9 354 355 353 349 346 343 342 344 345 346 348
157 131 96 2 2 121 153 182 135 207 261 298 287 195 143 153 155 149 155 159 162 164 162 162 158 151 147 130 82 33 2 354 355 353 349 347 344 343 344 345 346 349 350 355
134 142 106 231 20 107 330 207 189 174 192 169 201 208 149 151 172 170 163 168 171 170 166 164 163 161 135 53 10 343 357 358 352 345 342 342 345 346 347 348 349 353 358 359
131 97 49 149 62 221 253 33 195 209 207 214 210 169 179 175 173 176 178 176 176 173 168 166 166 167 133 260 196 41 7 348 342 340 339 345 348 348 348 348 351 357 360 359
31 134 100 146 199 296 320 198 170 175 243 205 190 134 150 150 149 169 185 187 181 175 169 169 174 197 202 173 23 351 340 335 337 336 342 347 346 346 346 349 354 357 359 358
72 51 118 93 146 202 235 221 199 115 290 182 181 161 150 149 161 203 183 183 173 174 179 190 197 187 176 212 308 330 329 333 333 338 341 343 341 344 346 352 356 357 357 360
45 46 156 191 205 286 236 184 133 110 245 252 193 176 162 172 191 169 170 169 179 185 191 197 194 193 203 253 305 315 322 327 333 339 339 338 341 341 350 354 352 355 360 357
166 141 189 96 68 273 182 111 170 254 308 230 188 172 159 144 144 158 168 176 183 195 197 196 197 206 239 284 303 317 325 328 330 333 335 336 336 344 348 348 352 353 353 352
264 187 188 181 217 235 207 225 266 285 236 158 168 161 154 144 150 159 168 180 189 196 200 201 208 231 269 303 315 314 317 323 326 332 331 333 336 339 344 348 352 353 350 347
251 188 203 58 216 230 232 223 255 237 181 169 175 166 165 153 156 163 176 188 197 201 203 207 229 271 295 301 305 313 316 324 328 321 319 327 332 337 342 350 351 348 347 346
205 144 183 265 271 281 238 219 215 178 167 161 160 161 162 162 167 184 192 194 197 202 204 223 257 279 294 304 305 310 317 312 311 317 323 327 331 337 343 346 344 346 347 348
191 182 173 216 212 188 226 203 194 178 169 164 163 164 171 185 191 194 198 204 203 201 217 244 270 287 293 298 304 304 302 306 309 311 320 328 331 330 331 333 337 343 343 343